Dewpoint
61 56 56 56 55 54 49 45 33 31 26 20 19 23 20 24 27 24 24 25 24 28 29 35 35 35 31 33 35 36 36 36 36 31 29 40 46 43 47 48 46 44 44 44 47 51 55 61 63 64 65 65 65 66 66 67 68 68 68 69 69 69 69 69 69 69 70 70 70 70 70 69 69 70 70 70 70 70 70 70 70 70 70 70 70 69 69 69 69 68 68 68 68 69 70 68 69
57 55 54 53 52 48 45 41 30 25 24 20 19 21 21 22 23 23 22 26 27 30 33 35 36 37 37 37 37 36 37 37 40 40 42 44 46 43 46 46 45 42 42 42 44 49 54 57 62 63 64 64 65 65 65 66 66 67 67 67 68 68 68 69 69 69 69 69 69 69 69 69 70 69 70 69 69 70 70 69 70 70 70 70 69 70 69 69 68 68 68 68 68 69 70 70 68
55 54 52 53 49 47 44 37 28 23 21 16 19 20 22 21 20 22 23 27 29 30 30 30 31 30 30 32 31 33 34 38 39 41 40 44 40 38 45 45 44 41 41 41 42 47 51 56 59 60 61 63 63 64 64 64 65 65 65 66 66 66 67 67 68 69 69 69 69 69 69 69 69 70 70 69 69 69 69 70 69 70 70 70 70 70 69 68 68 68 67 68 68 69 71 70 68
54 55 51 51 45 41 37 33 27 22 20 21 18 21 21 22 21 24 26 28 29 29 29 29 29 31 30 31 31 33 34 35 38 40 38 41 42 45 45 44 44 37 37 39 39 45 49 55 56 58 59 60 60 60 60 61 62 63 64 64 65 65 66 66 67 67 68 68 69 69 68 68 69 69 69 69 69 69 69 68 69 69 69 70 70 70 70 70 69 68 68 68 69 70 70 70 70
53 54 51 47 39 32 33 30 23 25 18 20 17 21 30 27 21 25 25 26 26 25 29 30 28 30 33 33 35 32 34 36 38 42 42 42 44 43 43 44 38 33 34 34 37 42 47 53 54 56 57 58 58 58 59 59 60 60 60 60 61 62 64 65 65 66 67 67 68 68 68 68 69 69 69 68 68 68 68 68 68 68 68 69 69 69 70 70 70 69 69 69 69 69 70 70 70
48 49 49 47 39 35 24 20 21 18 21 22 18 18 23 26 22 24 26 29 30 29 29 28 27 28 30 31 34 32 35 35 38 40 40 37 43 45 43 45 34 33 33 33 35 39 47 52 53 54 56 57 57 56 57 57 58 58 58 59 59 60 61 62 62 63 63 63 65 66 66 66 67 68 69 68 68 68 68 68 68 68 69 69 69 69 69 69 69 69 69 69 69 69 70 70 70
43 42 41 37 35 35 27 23 19 19 21 23 20 20 21 24 23 25 26 26 27 28 30 29 30 30 29 32 31 35 37 39 38 38 41 41 44 43 42 35 34 33 33 32 33 37 46 50 52 53 53 55 55 55 55 56 56 57 57 57 58 59 59 58 58 58 59 60 62 63 65 65 65 67 67 67 67 68 68 68 68 68 68 68 68 69 69 69 69 69 69 69 69 69 70 70 70
46 38 38 30 29 29 23 21 20 26 19 22 23 21 22 23 23 23 23 25 24 26 29 30 30 28 29 32 29 33 37 38 40 42 42 40 40 39 40 35 32 33 34 33 32 36 46 48 50 51 52 53 54 54 54 55 55 55 55 56 57 57 56 55 55 55 56 58 59 61 63 64 65 65 66 66 66 67 67 67 67 68 68 68 68 68 68 69 69 68 69 69 69 69 69 70 70
40 41 39 32 26 28 22 20 20 24 23 23 20 27 37 23 23 21 22 24 28 29 29 30 28 24 28 29 31 33 33 38 40 45 40 40 37 37 39 37 32 35 36 34 32 34 39 45 47 48 49 50 52 53 53 53 53 53 54 54 54 55 55 53 53 54 54 55 57 57 58 59 61 63 64 65 64 65 66 66 66 67 67 67 67 68 68 68 68 69 69 69 69 69 68 68 69
37 34 29 28 30 22 22 19 19 20 20 21 20 20 21 22 22 21 23 26 27 29 29 29 28 23 28 28 29 30 31 37 38 37 39 38 39 37 38 38 38 36 34 34 33 33 37 42 44 45 46 47 49 51 51 51 51 51 52 52 52 53 53 52 52 52 53 54 55 54 54 54 55 57 58 58 59 60 62 63 64 64 66 66 66 67 67 68 68 68 68 68 68 68 68 68 68
31 37 35 26 23 21 20 19 21 22 19 21 21 21 20 21 20 20 24 25 27 28 28 28 27 28 28 28 30 34 34 35 33 32 36 37 38 37 30 37 37 37 32 35 36 32 31 35 40 43 43 44 46 48 49 49 49 50 50 50 51 51 51 51 50 50 51 52 53 52 51 52 52 52 52 53 55 57 57 60 62 62 64 65 66 66 66 67 68 67 67 67 68 68 68 68 68
25 31 32 24 22 22 23 21 23 23 23 23 19 21 26 20 22 22 24 25 27 27 26 28 26 28 26 27 29 29 30 31 34 35 36 36 33 36 35 33 36 36 36 33 34 31 30 30 32 38 40 41 42 44 45 46 47 47 48 48 49 49 49 48 49 48 48 49 50 50 49 50 50 51 51 52 53 53 54 55 56 59 61 62 63 64 65 66 67 67 67 67 67 67 67 68 68
28 33 28 25 22 23 23 21 21 31 21 19 19 21 22 20 21 22 23 25 26 26 24 26 28 27 26 26 30 31 26 29 32 34 35 30 33 33 35 33 37 36 36 36 31 30 32 27 29 32 36 38 40 41 42 43 43 44 45 45 46 46 46 46 46 46 46 47 47 47 46 46 46 47 48 49 51 50 51 52 53 54 54 55 57 59 61 62 63 63 64 65 66 67 68 68 68
33 32 28 24 28 24 21 21 23 18 17 20 21 22 23 20 20 23 24 24 24 24 25 28 28 28 26 25 27 25 25 28 28 34 32 33 33 33 34 33 35 32 35 33 30 29 28 28 29 29 29 29 31 36 39 41 40 41 42 42 42 43 43 43 43 43 42 43 43 43 42 42 43 43 44 45 47 47 48 49 50 53 53 53 54 57 59 60 61 62 64 64 64 65 66 68 68
31 36 31 28 26 19 22 19 19 21 18 21 21 20 23 28 24 26 23 23 24 27 27 27 31 25 22 23 24 24 24 27 30 34 33 32 31 31 33 32 33 33 30 30 31 29 27 28 27 27 30 28 29 31 32 35 40 39 39 39 40 40 40 40 40 39 39 40 41 40 39 40 40 41 41 42 43 44 44 44 47 50 51 52 55 57 58 57 57 60 62 63 64 65 66 66 66
36 34 31 26 22 22 20 22 26 21 19 21 21 22 22 24 26 24 25 25 26 28 27 25 25 25 26 24 28 24 24 28 31 32 28 29 29 30 29 28 27 28 29 29 28 31 30 28 28 27 29 28 29 31 31 33 40 38 39 39 38 38 39 38 38 38 38 39 40 40 40 37 38 36 40 38 42 42 42 41 44 48 48 49 53 56 54 53 54 55 56 59 62 63 64 63 63
39 36 24 26 20 21 19 21 21 17 23 23 23 21 19 21 25 23 23 24 23 23 23 24 24 26 27 25 29 23 25 34 36 29 27 26 24 23 25 28 30 25 30 26 28 28 30 29 28 28 28 28 28 31 32 33 38 37 36 37 38 37 38 38 37 37 37 37 39 39 38 32 32 32 32 35 41 38 42 43 42 44 46 47 50 52 52 52 53 56 58 58 60 61 61 60 61
34 26 26 21 23 19 22 21 21 24 20 20 19 19 21 20 24 22 23 21 21 21 21 22 23 24 28 29 29 27 31 28 28 23 24 23 26 21 24 25 25 22 26 24 26 27 28 29 29 29 28 28 27 32 33 33 34 34 28 29 34 34 37 38 32 33 36 31 37 34 32 32 31 31 33 40 35 37 37 41 41 41 43 44 45 48 49 50 52 54 55 55 55 57 58 60 61
30 27 22 16 24 20 24 22 23 19 19 19 19 20 20 20 23 22 20 20 20 20 20 22 21 22 24 25 26 25 24 24 24 23 24 24 24 24 23 26 24 23 22 24 24 27 28 28 30 29 30 29 27 28 32 31 29 28 27 28 33 34 34 34 29 30 28 28 30 30 32 30 32 32 32 38 39 40 37 40 40 40 40 41 43 45 46 47 51 53 52 51 52 53 57 60 61
32 16 16 22 27 23 22 21 23 21 20 19 19 19 20 20 21 24 21 20 21 20 19 20 20 20 22 24 24 24 21 22 25 23 22 21 21 19 21 24 21 24 25 26 27 32 28 27 29 31 32 30 28 27 31 26 30 28 26 26 28 26 28 29 27 27 27 28 29 29 29 30 30 29 37 37 39 33 33 38 39 38 38 40 42 43 44 45 49 50 49 49 50 51 54 56 58
27 21 16 21 27 19 19 21 21 21 21 19 19 18 18 22 23 22 21 19 20 20 20 19 19 19 21 23 25 26 23 23 24 23 22 23 23 23 17 19 21 21 25 32 30 30 28 27 28 29 31 30 29 27 27 27 31 26 26 26 29 25 28 24 24 25 26 26 27 27 30 30 29 27 28 28 28 30 30 31 32 31 32 34 41 38 38 42 46 46 44 45 46 48 49 51 54
23 15 19 23 25 20 20 21 24 22 21 19 18 17 17 22 23 23 20 19 19 20 21 21 20 19 20 22 24 26 23 23 21 23 22 21 20 18 20 22 25 26 30 22 23 25 27 27 29 30 30 29 28 27 27 31 27 25 25 26 30 25 31 25 24 24 24 25 26 28 29 26 26 26 26 26 27 27 28 29 30 32 33 34 37 35 37 41 43 43 42 42 43 44 46 48 50
18 19 20 26 23 20 21 22 23 19 18 17 17 18 21 21 21 23 21 19 20 24 24 21 20 20 20 22 25 25 24 23 22 23 22 22 23 22 17 18 20 20 24 23 27 26 34 27 27 29 28 30 28 29 26 26 25 26 26 30 31 24 30 25 25 24 25 26 26 28 28 26 26 26 26 26 26 26 26 26 28 30 31 33 35 35 36 39 42 41 41 41 41 42 43 45 46
19 15 19 22 25 20 22 22 24 19 17 17 16 22 19 21 18 22 22 21 21 21 22 21 20 21 22 22 23 22 23 23 23 22 25 23 24 24 25 22 21 24 27 24 27 28 32 25 28 25 27 30 28 28 27 25 26 27 27 32 26 33 29 25 25 26 27 23 27 25 30 27 26 26 25 25 26 26 26 27 27 27 28 30 33 36 37 38 38 39 39 39 40 40 41 42 43
21 20 24 23 22 21 24 21 22 21 18 19 19 18 17 21 19 23 22 23 22 22 21 21 21 21 22 21 22 23 24 25 24 25 29 25 27 30 30 30 29 28 22 23 27 29 26 32 29 23 26 26 28 29 25 26 26 27 27 26 24 36 24 24 25 25 22 24 24 25 28 26 26 25 25 25 25 25 25 25 26 26 26 27 30 31 33 33 35 37 38 37 38 38 39 40 42
26 22 24 21 20 21 22 20 21 21 19 20 17 16 18 21 24 21 22 21 21 22 21 21 21 21 20 20 20 22 22 24 25 25 25 27 30 28 28 28 29 22 23 23 29 26 29 31 28 24 26 29 31 27 26 27 26 26 26 27 24 31 24 25 26 23 23 23 22 25 27 28 27 26 25 24 24 23 24 24 25 25 25 26 27 26 28 31 32 34 35 36 36 37 38 39 42
25 26 23 20 20 19 21 19 20 21 19 18 16 15 18 21 21 14 20 20 22 21 21 21 20 19 19 19 20 21 21 22 23 23 26 25 26 26 26 28 28 24 30 27 27 29 35 28 26 26 26 33 31 27 28 28 27 24 28 26 26 25 25 27 24 22 24 22 23 26 27 27 28 26 23 22 21 22 22 23 24 25 26 26 26 26 27 29 29 31 33 34 35 36 37 39 41
22 21 19 18 19 20 21 20 19 18 17 18 16 16 22 22 21 14 19 20 21 20 20 20 19 18 17 18 19 22 20 22 22 24 21 22 22 23 23 23 24 26 26 25 26 28 29 26 24 26 27 30 31 26 30 27 27 26 30 26 25 25 27 23 21 22 25 22 25 25 26 26 26 23 21 21 21 20 21 23 24 25 25 25 26 26 26 26 28 29 31 33 35 36 37 38 40
21 19 17 17 21 19 19 19 19 19 17 19 18 17 16 21 18 21 19 20 21 20 20 19 18 17 18 18 19 20 19 18 22 21 21 21 21 25 21 24 25 25 27 24 25 31 23 22 26 25 27 27 25 25 25 26 26 26 26 26 27 30 23 23 21 22 22 23 26 26 25 25 24 22 20 20 22 20 22 22 20 20 20 21 22 23 24 25 26 27 29 31 33 34 36 37 39
20 19 18 18 21 20 19 23 19 18 18 20 18 15 16 16 19 19 19 20 19 19 19 18 18 17 18 19 18 19 20 20 21 22 20 22 21 25 19 21 28 23 22 28 27 22 27 32 32 32 31 26 30 27 29 26 25 26 31 26 28 26 23 22 25 21 23 24 24 23 24 23 24 21 20 19 19 20 19 17 17 17 18 19 19 19 20 21 24 26 28 30 34 33 34 35 37
17 18 23 20 19 20 20 20 19 17 22 20 16 17 16 16 16 19 19 19 19 18 18 17 18 17 17 18 18 18 19 20 21 21 23 23 22 24 18 19 28 26 33 26 22 17 28 27 33 29 33 28 27 26 27 26 29 27 25 25 23 26 23 20 19 19 21 21 22 21 24 23 23 21 21 20 19 19 17 17 17 17 18 18 17 17 17 18 20 23 27 29 30 32 33 35 36
24 17 20 23 18 21 23 23 20 17 18 18 16 17 16 16 17 18 19 19 18 18 17 17 17 16 16 17 17 18 18 20 23 23 22 22 23 22 21 17 22 24 21 19 21 27 21 22 32 24 27 25 25 28 27 26 24 24 24 29 25 25 22 20 18 19 21 21 21 21 22 22 22 20 20 20 18 17 17 17 17 18 18 17 18 17 18 17 18 21 24 28 30 31 33 34 35
21 18 20 20 21 21 18 18 20 21 19 19 17 17 15 15 16 18 18 18 18 17 17 16 16 15 16 16 16 17 19 18 22 22 22 24 23 20 19 14 18 21 19 20 19 21 22 20 31 27 24 24 25 21 26 25 26 24 21 22 22 24 20 18 18 20 21 20 18 19 21 22 20 20 20 19 18 17 17 17 17 17 18 17 17 17 17 18 16 19 20 26 31 32 33 34 34
21 21 18 23 17 17 19 20 18 24 18 17 18 16 16 16 17 18 17 18 17 17 16 16 16 15 15 16 16 17 18 17 18 20 21 23 23 19 14 21 18 20 20 20 19 20 18 20 22 27 28 28 25 24 25 25 24 23 22 22 28 22 19 18 18 21 20 20 19 20 22 20 21 19 19 19 17 17 18 17 16 17 17 16 17 16 16 16 16 16 18 20 26 32 33 34 33
21 21 19 20 19 17 19 19 17 16 19 16 17 17 16 16 17 18 17 17 17 16 16 16 15 15 15 16 17 17 17 17 16 18 22 23 21 20 15 20 18 19 20 20 19 21 23 23 28 29 30 26 24 24 24 27 24 21 21 21 21 20 18 18 19 20 21 18 20 23 22 19 19 19 19 19 16 16 15 16 16 16 16 16 16 16 15 16 17 17 18 18 20 24 29 30 31
19 19 18 20 19 20 16 17 16 16 12 12 15 15 14 15 15 16 17 17 16 16 16 16 15 15 15 16 17 17 18 17 18 20 23 23 20 18 16 20 19 18 16 16 21 20 20 21 25 25 26 23 24 23 24 23 21 21 19 18 18 18 16 21 20 18 20 19 23 21 20 19 19 20 18 17 16 16 15 15 15 16 16 16 16 15 15 15 16 18 19 20 20 22 25 28 31
17 20 19 17 18 17 17 15 14 19 17 15 14 14 14 14 15 16 17 17 17 16 16 16 16 16 16 16 16 17 17 17 22 23 23 21 19 18 17 18 17 18 16 16 19 19 20 21 27 21 23 23 24 22 23 22 19 19 20 18 15 14 16 21 18 19 20 20 22 20 19 18 18 17 18 17 15 16 16 15 15 15 15 16 15 15 15 16 19 20 20 19 21 21 23 27 32
16 18 18 17 19 17 18 16 20 22 18 18 19 18 17 16 17 18 18 17 16 16 16 16 16 16 16 16 16 17 17 21 23 23 22 20 17 19 18 18 21 14 16 16 17 19 20 22 21 22 24 22 22 21 24 24 21 19 17 15 16 15 14 15 14 14 17 22 21 17 17 17 17 16 17 16 16 15 15 15 14 14 14 14 16 18 18 23 19 17 17 16 17 18 20 24 28
18 18 19 17 18 19 19 20 23 20 20 18 18 18 18 18 19 19 19 18 18 17 17 17 16 16 16 17 16 16 18 19 20 20 21 17 18 18 17 17 17 13 14 17 17 20 21 22 22 23 22 22 22 24 25 21 20 22 20 18 17 16 17 19 18 19 20 20 19 17 19 18 18 16 16 17 16 16 15 14 14 14 14 17 17 17 17 16 15 15 15 15 14 15 17 22 26
18 18 16 18 21 21 22 23 24 22 19 21 21 20 20 20 21 20 21 20 19 21 19 19 19 17 17 16 16 17 17 18 18 19 18 13 14 14 16 16 16 16 18 17 19 19 21 25 21 21 22 22 22 23 28 22 22 22 21 18 18 17 14 20 21 19 18 18 14 16 16 16 16 16 16 15 16 15 14 14 13 14 14 16 16 14 13 13 13 13 14 15 15 14 17 19 25
21 21 20 20 21 21 22 20 21 21 22 21 19 19 16 19 18 18 19 20 20 20 21 20 20 21 19 21 20 18 17 18 18 19 16 12 12 12 13 15 15 16 18 17 18 20 20 22 21 21 20 21 22 28 24 22 24 20 18 18 19 18 19 18 16 15 18 16 17 14 14 16 17 16 16 15 16 15 15 14 14 13 13 13 14 12 12 12 12 13 14 15 15 16 16 17 20
21 23 21 21 21 21 22 23 20 20 20 20 20 15 16 19 19 19 19 19 18 18 19 19 19 19 20 18 18 19 21 19 18 18 15 11 10 11 12 14 15 15 16 17 19 20 22 21 21 21 21 22 22 22 22 24 20 18 15 13 11 11 10 10 9 9 10 10 10 12 13 13 14 14 14 14 14 16 14 14 14 13 13 13 14 13 13 13 13 14 15 16 15 15 15 16 18
21 23 24 22 22 21 22 21 22 18 16 19 22 17 15 16 18 19 19 18 17 17 18 18 19 19 19 19 19 18 18 19 19 18 15 10 10 10 10 13 13 14 15 18 20 20 21 21 21 21 21 21 24 23 22 25 17 17 16 15 15 13 12 12 12 13 12 12 13 11 11 12 13 13 13 13 13 14 14 13 13 13 13 12 15 13 14 13 14 14 15 13 13 15 14 13 14
20 24 24 24 23 22 22 20 20 20 22 21 19 20 17 17 18 20 20 19 19 19 19 19 18 18 19 19 19 18 18 18 19 18 15 10 9 9 9 12 13 14 15 18 19 21 21 21 22 21 21 25 23 22 21 21 18 17 16 15 18 15 12 11 11 11 13 15 12 10 10 10 11 12 12 12 12 13 13 13 13 12 12 11 13 12 11 11 11 12 11 11 11 12 12 12 13
23 25 23 22 22 22 22 19 18 19 17 19 18 19 15 15 16 17 18 18 18 18 18 19 19 18 18 19 19 18 18 19 19 18 15 10 9 9 9 11 13 14 17 17 18 20 21 21 24 22 21 21 21 20 23 19 21 19 17 15 13 14 14 15 13 13 11 11 9 9 8 8 9 11 12 12 12 12 14 13 12 12 11 11 13 13 11 11 10 10 10 11 12 13 13 14 14
24 25 24 24 23 22 20 18 17 16 16 19 18 18 13 14 19 16 17 16 17 18 19 19 19 18 17 18 18 19 18 19 19 17 15 11 9 9 10 11 13 15 17 20 19 21 22 22 22 23 19 19 20 19 18 17 17 19 15 14 13 11 12 9 9 8 8 8 7 7 7 8 8 9 10 11 11 12 11 12 12 11 11 10 14 11 11 11 11 12 12 11 10 10 10 10 11
25 23 21 23 21 20 17 17 16 12 11 18 19 18 17 16 18 18 17 19 17 18 18 18 18 19 18 18 18 19 19 19 18 16 14 12 9 10 11 11 13 15 17 19 21 21 21 21 20 19 18 19 19 18 18 17 16 16 15 14 13 11 10 9 8 7 7 6 6 6 6 7 9 9 9 10 10 11 11 12 12 11 11 13 13 10 9 9 9 9 8 8 8 8 8 9 9
22 20 20 23 22 17 10 5 11 9 13 13 15 18 18 15 15 20 19 20 18 19 19 20 20 19 18 18 18 18 18 18 17 15 13 11 10 10 13 12 13 14 17 19 19 21 21 20 20 18 18 18 17 19 18 17 16 16 15 14 12 11 9 9 7 6 6 6 5 5 6 7 7 9 9 9 9 9 11 10 12 11 11 10 9 9 9 9 9 9 8 8 8 9 9 10 10
22 21 20 16 15 15 13 5 5 7 10 12 15 17 16 17 15 19 19 19 19 18 19 19 20 20 19 18 18 19 19 17 15 14 13 11 9 10 12 11 13 14 16 16 18 20 20 20 19 17 17 17 17 16 16 15 15 14 13 12 11 12 11 9 7 7 6 6 5 6 7 6 7 7 7 8 8 9 10 9 10 10 10 10 11 10 9 9 9 9 8 9 9 9 9 9 10
21 21 18 15 12 11 10 7 2 9 11 15 14 16 15 15 15 18 18 19 19 19 18 19 19 19 19 18 18 18 19 17 15 14 13 11 10 11 12 12 14 15 15 16 18 20 20 20 19 17 17 17 17 16 15 14 14 13 12 11 10 9 8 8 7 6 6 6 7 6 5 6 7 6 7 7 8 9 10 10 10 10 10 10 10 10 10 10 10 9 9 8 8 8 9 10 11
21 22 21 21 14 5 4 3 0 5 10 11 11 11 14 7 13 19 18 19 20 20 18 16 19 19 19 18 18 18 17 15 14 13 13 11 11 11 13 13 14 15 15 18 19 20 20 19 18 18 16 16 15 14 15 14 13 11 10 9 9 9 8 8 8 9 7 6 5 5 5 6 6 6 7 7 10 9 10 10 10 10 10 10 10 9 11 9 8 9 9 8 9 10 10 11 11
21 22 23 18 20 18 10 11 6 9 13 14 7 15 15 12 16 19 18 15 15 17 14 14 13 14 19 18 17 17 16 15 14 13 12 11 11 12 13 14 15 15 16 18 19 19 18 18 18 17 16 15 14 16 15 13 11 10 9 8 7 10 12 10 9 7 5 4 4 5 5 6 6 6 6 8 9 10 10 10 10 10 10 10 9 9 9 9 8 8 7 7 7 9 8 8 9
21 21 18 22 24 20 15 15 8 8 6 15 5 13 17 18 16 18 17 15 15 11 8 8 9 12 18 18 17 16 15 14 13 13 12 10 11 12 14 14 15 16 17 18 18 18 17 18 18 16 15 14 14 16 14 11 9 8 7 6 6 6 5 4 3 2 2 3 5 6 6 6 6 7 8 10 10 10 10 10 10 9 10 9 9 9 9 9 8 7 7 6 6 6 7 7 8
21 16 20 21 24 23 20 14 9 3 7 13 9 13 12 13 11 14 13 15 14 13 11 10 10 13 15 16 18 17 15 13 12 12 11 11 11 12 14 15 15 17 17 18 18 18 17 17 16 15 15 13 13 12 11 10 8 7 6 6 5 4 3 2 2 2 2 3 3 4 4 5 5 6 9 10 10 10 9 11 9 8 9 8 8 8 8 8 8 7 6 6 6 7 7 7 7
21 21 24 17 13 10 13 10 9 7 7 11 14 15 15 14 12 12 13 14 15 14 14 12 10 8 11 14 16 16 14 13 12 11 11 11 12 13 14 14 16 16 18 17 17 18 17 17 16 14 13 13 13 13 11 10 8 7 7 6 3 3 2 2 2 3 2 2 1 2 3 4 5 7 9 8 8 8 8 8 8 8 8 8 8 8 8 8 7 6 6 7 6 6 6 6 7
20 19 16 17 17 13 11 16 11 13 9 4 11 12 10 11 15 18 18 15 15 14 13 12 11 10 9 12 15 15 13 12 12 12 12 11 11 11 13 14 15 17 18 17 16 16 15 16 17 16 16 14 11 9 9 5 4 5 4 2 1 1 2 1 1 0 -1 0 1 3 4 5 6 8 8 8 8 8 8 7 7 7 8 8 8 8 7 7 6 6 6 6 6 6 5 6 7
16 17 16 10 13 17 17 14 14 14 6 9 7 11 12 12 19 19 19 19 15 15 16 18 17 12 9 11 14 15 13 12 12 12 12 11 11 11 13 13 15 16 17 17 16 15 15 15 14 15 11 9 9 8 6 4 5 3 1 -2 -2 -2 -3 -2 -2 -1 -1 -0 1 5 5 5 7 7 7 7 7 7 7 7 7 7 7 7 7 6 6 5 5 5 5 6 6 6 5 5 7
20 19 19 16 15 10 10 14 14 11 12 12 8 12 16 17 19 20 21 22 21 19 20 21 19 13 10 11 12 14 13 12 12 11 11 11 11 12 13 14 14 15 15 14 16 14 13 13 13 12 11 9 7 5 4 2 2 1 -2 -3 -4 -4 -3 -3 -3 -3 -0 1 2 4 5 6 6 6 7 6 6 6 6 5 5 5 5 5 5 4 4 5 5 4 4 5 7 6 6 6 6